Location: *
(51.0333°S, 178.4667°E)
Time: 04:38:42
(UTC+00:00)

Cosmos 2056 Rocket - Pass Details

Date: 15 November 2019
Orbit: 743 x 800 km, 74.0° (Epoch: 08 December)

Event Time Altitude Azimuth Distance (km) Brightness Sun altitude
Exits shadow 09:39:18 - 337° (NNW) 2,862 6.1 -14.8°
Reaches altitude 10° 09:40:36 10° 337° (NNW) 2,361 5.7 -14.9°
Maximum altitude 09:46:00 89° 245° (WSW) 814 3.6 -15.3°
Drops below altitude 10° 09:51:32 10° 156° (SSE) 2,413 6.6 -15.8°
Sets 09:53:58 0° 155° (SSE) 3,352 7.4 -15.9°
